RH
14 10 8 6 4 3 3 3 3 3 3 4 4 3 3 3 3 3 3 2 2 2 2 2 2 2 2
9 5 4 3 3 2 2 2 2 3 4 5 6 6 6 6 6 5 5 5 4 4 4 3 4 3 3
4 3 3 2 2 2 2 3 4 5 8 8 8 9 8 8 8 7 8 8 8 7 6 5 6 6 6
2 2 2 2 3 3 3 4 6 10 12 12 13 13 12 12 13 14 14 13 12 11 10 8 7 7 8
2 2 3 3 4 5 5 7 10 15 15 19 19 17 16 18 20 23 22 17 15 14 14 14 16 13 10
3 4 4 5 6 8 11 16 14 22 23 23 25 23 29 27 29 23 18 16 14 13 14 13 13 14 16
5 5 6 8 9 12 18 19 28 33 44 31 35 40 37 34 29 25 25 23 21 19 16 14 14 12 12
5 5 7 10 16 20 23 38 51 62 71 53 51 44 39 39 32 28 28 29 22 17 17 17 18 17 15
6 7 11 14 20 34 40 69 57 66 74 72 68 47 41 41 35 28 28 28 23 19 21 22 25 24 19
7 9 14 18 29 44 50 60 73 65 66 81 67 56 43 47 40 27 27 28 24 23 23 24 27 37 38
10 10 18 28 35 44 54 63 69 68 72 87 71 63 63 57 51 31 27 26 23 24 25 27 28 36 48
12 16 22 29 36 43 56 66 73 70 82 89 77 80 76 63 59 43 31 28 24 25 26 25 28 68 95
15 18 24 30 38 49 65 74 72 77 91 93 98 92 82 78 70 60 34 25 26 24 26 23 29 72 72
23 24 26 35 46 56 60 70 72 85 88 88 99 92 80 81 81 64 32 29 27 27 28 22 33 81 83
36 38 39 41 47 61 69 73 74 79 78 97 96 88 87 85 73 55 33 32 33 30 36 23 35 82 84
41 43 48 50 49 58 71 76 74 80 84 88 88 83 84 78 85 62 45 41 41 41 50 36 34 80 89
55 56 59 61 62 62 69 74 78 82 84 88 84 78 73 65 64 92 51 54 45 41 46 40 39 74 87
Wind_Speed
43 45 47 50 51 52 54 54 54 53 51 48 48 49 50 50 52 52 51 51 50 48 46 45 44 42 43
47 49 50 51 53 55 55 54 53 51 50 48 47 46 45 44 43 42 41 42 43 44 44 45 43 42 41
51 52 53 52 52 51 51 50 50 48 44 44 43 42 43 44 44 43 42 41 41 42 42 43 43 43 41
51 52 51 50 50 51 51 49 49 45 41 42 40 38 38 40 40 40 40 41 41 40 40 40 41 41 41
50 50 49 48 47 48 50 50 49 45 44 38 36 33 33 35 37 38 37 37 38 38 38 39 39 39 39
47 48 47 48 47 48 47 48 50 45 44 38 34 32 30 30 31 33 34 34 35 35 35 35 36 37 36
46 47 48 47 48 47 45 46 46 41 39 39 34 33 30 28 28 28 27 29 30 31 31 33 35 36 37
42 43 43 42 41 42 42 41 42 38 34 40 36 34 31 27 25 24 25 27 29 30 31 34 35 36 37
41 40 40 39 37 37 38 39 42 38 37 39 34 34 31 27 24 22 22 26 28 28 32 34 33 33 34
37 35 34 34 32 32 34 38 39 39 32 37 34 33 34 28 22 21 22 25 27 29 30 32 30 33 35
37 36 32 29 29 28 31 35 37 35 29 33 32 32 33 36 28 22 23 25 26 27 28 28 30 33 36
34 33 32 30 27 26 28 30 31 31 26 26 30 30 33 33 33 25 24 26 27 28 27 28 29 29 27
32 31 30 28 26 25 24 25 25 24 24 23 23 28 32 34 35 29 28 27 26 28 27 27 29 27 26
31 30 29 27 24 24 24 23 22 19 19 19 23 29 33 32 32 31 27 29 27 28 28 26 27 26 26
31 30 29 27 25 23 24 24 23 22 21 24 30 32 32 32 31 29 27 26 26 27 28 27 24 23 24
30 30 29 28 26 23 24 24 23 22 23 25 26 27 27 23 24 27 24 26 25 25 24 28 25 19 22
29 29 29 29 28 27 25 25 23 22 22 23 24 26 27 26 18 19 26 23 24 22 22 22 24 19 20
Wind_Direction
306 305 305 305 307 306 306 305 305 304 303 303 302 301 300 297 295 295 294 292 291 289 286 283 281 280 276
305 306 306 307 306 306 304 304 303 304 306 307 307 307 305 303 301 298 295 291 287 284 284 281 277 275 273
305 305 305 307 305 304 303 304 305 305 307 308 308 309 307 304 303 301 297 293 289 286 283 281 281 279 274
306 305 305 305 305 306 306 306 305 306 308 308 308 306 304 302 301 299 296 293 291 290 287 285 282 280 279
307 305 305 306 307 308 308 307 306 308 309 309 307 303 299 297 296 295 295 294 292 290 287 285 284 282 279
306 307 308 311 311 310 309 307 308 311 310 309 306 305 303 299 296 296 296 294 294 292 291 289 285 282 279
310 311 311 312 311 309 308 307 306 309 308 307 309 308 305 302 302 299 295 293 293 295 298 298 295 290 286
309 308 307 307 307 307 305 304 302 308 309 307 309 306 303 302 300 298 297 293 294 299 306 307 303 297 292
312 311 309 308 307 301 301 299 301 304 307 306 308 303 299 299 297 293 298 297 296 299 306 310 309 301 296
311 309 307 306 304 301 300 298 300 303 308 303 304 303 300 300 302 293 295 305 300 298 304 313 306 303 301
311 310 308 306 304 299 297 298 299 300 304 295 300 300 302 305 308 299 293 301 307 301 301 311 308 301 299
309 308 309 309 306 300 294 294 296 298 296 291 294 301 304 306 307 305 298 299 307 309 304 307 312 302 298
308 310 311 311 309 303 300 298 300 298 292 289 298 304 311 309 307 312 306 296 305 309 308 310 317 311 307
308 308 309 310 310 307 305 304 304 296 295 291 291 299 308 307 308 310 306 302 306 311 312 313 319 315 315
302 302 302 303 305 307 308 308 308 302 295 293 298 302 302 307 308 309 307 304 308 312 314 312 322 318 317
296 296 299 301 301 300 302 305 307 306 303 301 301 300 301 304 307 305 302 303 306 311 315 312 320 320 319
296 296 298 299 299 298 297 298 300 303 305 302 302 303 310 314 319 306 304 307 306 309 313 309 316 322 325